Temp
-13 -13 -13 -13 -13 -12 -12 -13 -13 -13 -13 -13 -13 -13 -13 -14 -14 -14 -14 -14 -14 -14 -14 -14 -14 -14 -14 -14 -14 -14 -14 -14
-13 -13 -13 -13 -13 -12 -13 -13 -13 -13 -13 -13 -13 -13 -13 -14 -14 -14 -14 -15 -14 -15 -15 -15 -15 -14 -14 -14 -14 -14 -14 -14
-13 -13 -13 -13 -12 -13 -13 -13 -13 -13 -13 -13 -14 -14 -14 -14 -14 -14 -15 -15 -15 -15 -15 -15 -15 -15 -15 -15 -14 -14 -14 -14
-12 -12 -13 -13 -12 -13 -13 -13 -13 -13 -14 -14 -14 -14 -14 -14 -14 -14 -14 -14 -14 -15 -15 -15 -15 -15 -15 -15 -15 -14 -14 -14
-12 -12 -12 -13 -13 -13 -13 -13 -13 -14 -14 -14 -14 -14 -14 -14 -14 -15 -15 -15 -15 -15 -15 -15 -15 -15 -14 -14 -14 -14 -15 -14
-13 -13 -13 -13 -14 -14 -14 -14 -14 -14 -15 -15 -15 -15 -15 -15 -15 -15 -15 -15 -14 -14 -14 -14 -14 -14 -14 -15 -15 -14 -14 -14
-13 -13 -13 -13 -13 -14 -14 -15 -14 -15 -15 -15 -15 -15 -15 -15 -15 -15 -15 -15 -14 -14 -14 -14 -14 -14 -14 -14 -14 -14 -14 -14
-12 -13 -14 -14 -14 -15 -15 -15 -15 -15 -15 -15 -15 -15 -15 -15 -15 -15 -15 -15 -15 -14 -14 -15 -15 -14 -14 -14 -14 -14 -14 -14
-14 -14 -15 -14 -15 -15 -15 -15 -15 -15 -15 -15 -15 -15 -15 -15 -15 -15 -15 -14 -14 -14 -14 -14 -14 -14 -14 -15 -15 -15 -14 -14
-15 -14 -15 -14 -15 -15 -15 -15 -15 -15 -15 -15 -15 -16 -15 -16 -15 -15 -15 -15 -15 -15 -15 -15 -14 -14 -14 -14 -14 -14 -14 -15
-14 -13 -14 -14 -16 -16 -16 -16 -16 -16 -16 -16 -16 -17 -16 -16 -15 -15 -15 -15 -15 -15 -15 -15 -15 -15 -14 -14 -14 -14 -14 -14
-15 -12 -14 -15 -16 -16 -16 -16 -16 -17 -17 -17 -17 -17 -17 -16 -16 -16 -15 -15 -16 -16 -15 -15 -15 -15 -15 -15 -15 -15 -16 -15
-15 -15 -16 -16 -16 -16 -17 -17 -17 -17 -17 -17 -17 -16 -18 -16 -16 -16 -16 -16 -17 -17 -16 -16 -16 -16 -16 -16 -16 -16 -15 -16
-16 -15 -16 -16 -17 -16 -17 -18 -18 -17 -17 -17 -17 -18 -18 -18 -18 -17 -17 -19 -19 -19 -19 -18 -18 -18 -18 -18 -17 -17 -17 -17
-17 -17 -17 -17 -17 -17 -18 -17 -17 -17 -17 -18 -17 -18 -18 -18 -18 -18 -18 -19 -19 -19 -19 -20 -19 -19 -20 -20 -19 -19 -19 -19
-17 -17 -17 -18 -18 -17 -17 -17 -17 -17 -18 -18 -18 -18 -18 -18 -18 -18 -19 -19 -20 -20 -20 -20 -20 -20 -21 -21 -22 -22 -22 -20
-17 -17 -17 -17 -17 -17 -17 -17 -17 -18 -17 -18 -18 -18 -18 -19 -19 -19 -20 -20 -21 -21 -21 -22 -22 -22 -22 -22 -22 -22 -23 -23
-17 -18 -17 -17 -17 -17 -18 -18 -17 -17 -17 -18 -18 -19 -19 -20 -20 -21 -21 -21 -21 -21 -22 -23 -23 -23 -22 -22 -23 -23 -23 -24
-17 -17 -18 -18 -17 -17 -17 -17 -17 -18 -18 -19 -19 -19 -20 -21 -21 -22 -22 -22 -23 -23 -23 -23 -23 -24 -24 -24 -25 -25 -25 -25
-17 -17 -17 -17 -18 -17 -17 -18 -18 -19 -19 -20 -20 -21 -22 -22 -22 -22 -23 -24 -24 -24 -24 -24 -25 -26 -26 -26 -27 -27 -28 -28
Height
5833 5834 5833 5831 5829 5829 5828 5827 5826 5825 5825 5823 5821 5819 5818 5816 5814 5812 5811 5809 5807 5805 5803 5802 5800 5799 5797 5796 5794 5793 5791 5788
5833 5832 5831 5829 5829 5828 5827 5825 5824 5823 5821 5819 5818 5816 5814 5812 5809 5807 5806 5804 5802 5801 5799 5797 5796 5794 5793 5791 5790 5790 5788 5786
5831 5831 5829 5828 5828 5827 5825 5824 5823 5820 5817 5816 5814 5812 5810 5808 5803 5802 5800 5797 5797 5794 5793 5791 5790 5789 5788 5786 5785 5785 5784 5782
5829 5827 5826 5826 5824 5823 5823 5821 5819 5817 5814 5811 5809 5807 5803 5800 5799 5796 5794 5791 5790 5788 5786 5784 5783 5781 5781 5780 5778 5778 5778 5777
5827 5825 5824 5822 5822 5821 5820 5817 5814 5812 5809 5806 5804 5801 5798 5795 5793 5791 5790 5788 5785 5783 5781 5779 5776 5774 5773 5772 5772 5771 5770 5769
5824 5821 5821 5818 5817 5815 5813 5811 5809 5806 5804 5801 5798 5795 5792 5790 5787 5784 5781 5777 5776 5774 5771 5769 5768 5766 5765 5764 5763 5763 5762 5762
5822 5819 5817 5815 5812 5809 5807 5805 5802 5800 5798 5795 5793 5790 5787 5784 5781 5778 5774 5771 5768 5765 5763 5762 5760 5758 5757 5755 5754 5754 5754 5753
5817 5811 5812 5810 5808 5805 5802 5800 5796 5794 5792 5789 5786 5782 5779 5775 5772 5769 5766 5763 5761 5758 5756 5754 5752 5750 5749 5749 5748 5745 5745 5745
5808 5800 5808 5805 5804 5800 5796 5795 5791 5787 5784 5781 5778 5774 5771 5767 5764 5760 5756 5753 5751 5749 5747 5744 5743 5742 5740 5738 5736 5738 5737 5734
5787 5767 5804 5801 5795 5792 5790 5789 5784 5780 5776 5771 5770 5767 5763 5759 5755 5751 5747 5744 5741 5738 5735 5733 5731 5728 5726 5725 5724 5723 5724 5725
5801 5795 5796 5795 5789 5785 5784 5781 5777 5772 5768 5761 5760 5754 5750 5746 5743 5740 5738 5735 5731 5727 5725 5722 5720 5717 5714 5712 5710 5707 5705 5706
5801 5795 5791 5787 5783 5782 5776 5771 5768 5763 5761 5754 5753 5745 5742 5736 5732 5729 5725 5721 5718 5714 5710 5708 5705 5702 5700 5699 5697 5696 5692 5688
5791 5789 5785 5780 5775 5774 5770 5765 5759 5755 5751 5745 5741 5735 5733 5725 5721 5717 5713 5708 5704 5699 5695 5693 5691 5686 5684 5682 5681 5679 5676 5676
5786 5783 5782 5776 5768 5764 5762 5757 5751 5746 5741 5736 5730 5725 5719 5714 5708 5703 5699 5693 5687 5683 5678 5674 5672 5668 5662 5660 5659 5662 5658 5656
5779 5775 5773 5768 5761 5757 5753 5748 5742 5738 5732 5726 5720 5713 5707 5702 5694 5688 5683 5679 5673 5666 5659 5654 5651 5650 5643 5636 5632 5631 5632 5634
5773 5769 5766 5761 5753 5747 5743 5737 5732 5726 5720 5714 5708 5701 5695 5688 5681 5674 5667 5661 5653 5647 5641 5635 5629 5627 5622 5614 5609 5602 5600 5602
5764 5760 5756 5750 5744 5739 5735 5727 5721 5715 5708 5701 5695 5688 5678 5671 5664 5655 5648 5641 5635 5627 5621 5616 5609 5603 5598 5594 5590 5584 5576 5568
5755 5750 5744 5740 5735 5731 5725 5717 5711 5702 5695 5688 5681 5671 5663 5655 5646 5637 5630 5622 5614 5606 5598 5591 5587 5580 5573 5566 5563 5558 5555 5545
5747 5743 5737 5730 5723 5719 5712 5704 5696 5688 5679 5670 5661 5653 5644 5635 5625 5617 5607 5600 5591 5583 5575 5561 5557 5551 5543 5537 5532 5525 5520 5515
5741 5736 5727 5720 5713 5704 5696 5687 5678 5669 5660 5651 5642 5633 5623 5612 5605 5594 5583 5576 5565 5557 5548 5538 5529 5520 5511 5504 5502 5497 5490 5486
Wind_Speed
5 2 3 4 6 8 9 10 11 13 14 15 16 16 16 17 17 17 18 18 18 17 18 19 19 19 19 19 20 19 19 19
2 2 4 7 9 9 10 13 14 16 17 18 18 20 20 22 22 21 22 24 25 25 25 25 24 24 22 20 21 21 21 19
6 8 10 11 13 15 16 16 16 18 20 22 23 25 26 24 28 27 26 28 27 27 28 27 27 28 27 26 24 22 23 25
9 10 12 13 15 17 19 21 22 23 24 26 28 29 29 30 27 28 29 30 30 30 29 30 28 28 27 27 29 28 27 26
11 12 14 16 20 21 23 23 25 27 28 30 31 31 30 30 30 31 32 32 34 35 36 34 33 34 33 33 31 31 30 29
11 15 17 20 22 25 26 27 29 31 31 32 33 34 34 35 36 39 41 42 41 40 37 36 35 34 34 35 35 36 36 35
16 19 20 24 25 28 31 33 34 35 34 35 37 38 38 38 40 43 42 41 42 40 37 37 36 35 34 35 35 34 36 37
22 25 21 24 27 31 33 36 38 38 38 38 38 40 41 42 45 45 43 42 40 37 38 38 39 39 37 35 35 37 37 36
28 13 24 28 28 32 35 37 39 41 42 43 43 45 45 45 46 43 41 40 40 42 41 40 40 40 40 42 42 38 39 41
32 12 29 32 35 37 38 40 42 44 45 48 47 47 44 45 45 45 44 44 47 48 49 49 50 51 50 50 48 48 47 45
38 44 39 37 38 43 43 45 46 47 49 53 52 53 50 50 50 49 48 50 53 54 55 55 56 56 57 58 59 61 60 58
38 45 43 39 45 40 49 50 49 50 52 56 53 54 52 53 53 55 56 59 60 61 62 62 62 63 63 62 63 63 65 68
43 44 42 40 49 51 50 51 51 55 57 56 56 56 54 57 59 60 62 65 67 67 66 66 67 68 69 69 69 69 71 69
43 43 45 51 51 53 52 52 55 56 57 57 56 53 53 55 60 65 68 65 68 72 76 76 74 73 74 74 74 73 72 72
46 49 49 49 52 54 55 56 55 55 55 57 62 59 58 59 64 70 76 73 73 78 77 77 78 77 76 77 78 77 75 72
47 48 48 50 52 55 55 55 58 59 61 62 63 64 65 68 73 77 76 76 76 77 79 79 80 78 78 78 78 78 77 80
45 46 49 50 50 52 54 59 59 60 62 64 66 68 71 74 75 77 78 78 78 78 79 78 79 81 81 80 80 82 83 85
41 46 48 49 51 52 54 57 61 64 67 70 72 76 76 76 77 78 80 81 80 83 82 82 83 85 86 86 86 86 86 89
41 44 48 51 56 58 62 65 67 70 74 75 76 78 77 76 77 78 79 80 84 87 88 94 97 94 91 90 90 91 91 91
43 44 50 55 59 64 68 71 74 77 78 78 78 79 78 80 80 82 82 84 88 94 94 98 96 92 88 87 84 79 75 71
Wind_Direction
168 123 18 352 352 347 342 335 331 324 321 320 323 319 316 313 304 300 302 304 303 303 305 305 301 298 295 294 292 290 291 288
212 300 303 312 319 321 320 324 322 322 320 317 317 313 315 309 307 304 300 299 300 300 298 297 293 289 288 288 286 284 286 286
301 319 323 321 321 319 317 314 316 317 317 315 314 312 311 309 308 308 306 303 305 301 301 299 297 293 288 283 279 279 277 278
316 318 315 311 311 309 308 309 312 312 311 311 312 312 313 314 312 311 312 311 308 304 304 302 299 295 290 287 285 281 276 272
327 322 315 315 314 310 306 310 310 308 309 311 311 313 314 313 312 310 306 304 304 299 299 298 299 300 298 295 291 284 278 273
319 313 318 318 314 312 313 312 311 311 312 313 314 314 312 312 310 309 306 302 303 303 299 296 297 295 294 295 294 291 287 280
320 317 318 316 314 314 317 315 314 312 310 312 312 310 306 305 305 304 301 299 298 298 296 294 294 293 294 294 294 292 290 288
316 303 317 315 313 316 313 311 311 308 308 309 310 309 306 304 304 303 300 299 298 299 299 299 299 297 293 290 289 291 288 285
290 317 324 309 309 306 304 308 309 308 308 308 310 309 305 305 303 302 300 298 299 299 298 296 293 290 288 288 288 283 280 282
311 299 313 307 308 303 306 307 311 310 310 309 310 308 305 306 305 304 303 303 303 301 300 298 296 294 292 290 285 283 280 276
308 303 314 313 309 309 309 312 314 312 311 310 312 311 310 309 307 305 302 301 299 298 295 292 290 288 287 288 289 288 286 283
301 309 312 311 302 308 312 310 312 310 308 306 310 306 309 307 306 304 300 298 297 297 295 294 293 292 291 290 289 288 288 288
302 309 309 311 306 305 305 308 309 303 305 307 306 307 310 305 302 298 298 298 298 297 297 296 296 295 292 289 287 286 285 285
296 301 298 299 301 302 304 302 301 303 304 303 304 304 306 304 300 300 303 302 299 300 297 298 297 297 295 293 290 288 285 283
293 295 295 296 296 300 300 301 301 300 299 300 304 301 299 296 293 296 298 297 292 295 296 295 295 293 292 290 288 286 284 281
287 293 294 294 296 298 301 302 302 304 305 304 305 304 302 296 294 295 295 295 294 293 292 292 292 292 290 289 290 290 285 279
296 297 296 296 298 299 302 302 305 305 303 303 302 301 298 297 296 295 295 294 292 292 291 292 292 291 289 286 286 284 284 283
296 294 299 300 299 302 302 302 302 302 302 302 301 300 299 297 295 294 293 293 289 291 293 293 292 291 288 286 285 282 280 279
298 300 300 303 305 307 306 305 304 303 303 303 303 302 301 300 297 296 295 294 290 291 291 293 294 292 289 286 284 282 281 279
300 302 304 305 305 305 306 306 305 304 304 304 304 303 301 298 300 299 297 295 293 292 295 294 293 290 287 285 283 284 282 278